Time,TemperatureF,DewpointF,PressureIn,WindDirection,WindDirectionDegrees,WindSpeedMPH,WindSpeedGustMPH,Humidity,HourlyPrecipIn,Conditions,Clouds,dailyrainin,SoftwareType,DateUTC
2013-01-19 00:00:00,25.2,23.2,29.79,WSW,253,0.0,0.0,92,0.00,,---,0.00,VWS V14.00,2013-01-19 06:00:00,
2013-01-19 00:03:00,25.2,23.2,29.79,WSW,253,0.0,0.0,92,0.00,,---,0.00,VWS V14.00,2013-01-19 06:03:00,
2013-01-19 00:08:00,25.1,23.1,29.78,WSW,253,0.0,0.0,92,0.00,,---,0.00,VWS V14.00,2013-01-19 06:08:00,
2013-01-19 00:13:00,24.8,22.8,29.78,WSW,253,0.0,0.0,92,0.00,,---,0.00,VWS V14.00,2013-01-19 06:13:00,
2013-01-19 00:18:00,24.4,22.4,29.78,WSW,253,0.0,0.0,92,0.00,,---,0.00,VWS V14.00,2013-01-19 06:18:00,
2013-01-19 00:23:00,24.2,22.2,29.78,WSW,253,0.0,0.0,92,0.00,,---,0.00,VWS V14.00,2013-01-19 06:23:00,
2013-01-19 00:28:00,24.2,22.2,29.78,WSW,253,0.0,0.0,92,0.00,,---,0.00,VWS V14.00,2013-01-19 06:28:00,
2013-01-19 00:30:00,24.2,22.2,29.78,WSW,253,0.0,0.0,92,0.00,,---,0.00,VWS V14.00,2013-01-19 06:30:00,
2013-01-19 00:33:00,24.2,22.5,29.78,WSW,253,0.0,0.0,93,0.00,,---,0.00,VWS V14.00,2013-01-19 06:33:00,
2013-01-19 00:38:00,24.4,22.7,29.78,WSW,253,0.0,0.0,93,0.00,,---,0.00,VWS V14.00,2013-01-19 06:38:00,
2013-01-19 00:43:00,24.4,22.7,29.77,WSW,253,0.0,0.0,93,0.00,,---,0.00,VWS V14.00,2013-01-19 06:43:00,
2013-01-19 00:48:00,24.6,22.9,29.77,WSW,253,0.0,0.0,93,0.00,,---,0.00,VWS V14.00,2013-01-19 06:48:00,
2013-01-19 00:53:00,24.5,22.8,29.77,WSW,253,0.0,0.0,93,0.00,,---,0.00,VWS V14.00,2013-01-19 06:53:00,
2013-01-19 00:58:00,24.4,22.7,29.77,WSW,253,0.0,0.0,93,0.00,,---,0.00,VWS V14.00,2013-01-19 06:58:00,
2013-01-19 01:00:00,24.4,22.7,29.77,WSW,253,0.0,0.0,93,0.00,,---,0.00,VWS V14.00,2013-01-19 07:00:00,
2013-01-19 01:03:00,24.3,22.6,29.77,WSW,253,0.0,0.0,93,0.00,,---,0.00,VWS V14.00,2013-01-19 07:03:00,
2013-01-19 01:08:00,24.1,22.1,29.77,WSW,253,0.0,0.0,92,0.00,,---,0.00,VWS V14.00,2013-01-19 07:08:00,
2013-01-19 01:13:00,23.9,22.2,29.77,WSW,253,0.0,0.0,93,0.00,,---,0.00,VWS V14.00,2013-01-19 07:13:00,
2013-01-19 01:18:00,23.8,22.1,29.77,WSW,253,0.0,0.0,93,0.00,,---,0.00,VWS V14.00,2013-01-19 07:18:00,
2013-01-19 01:23:00,23.7,22.0,29.77,WSW,253,0.0,0.0,93,0.00,,---,0.00,VWS V14.00,2013-01-19 07:23:00,
2013-01-19 01:28:00,23.7,22.0,29.77,WSW,253,0.0,0.0,93,0.00,,---,0.00,VWS V14.00,2013-01-19 07:28:00,
2013-01-19 01:30:00,23.7,22.0,29.77,WSW,253,0.0,0.0,93,0.00,,---,0.00,VWS V14.00,2013-01-19 07:30:00,
2013-01-19 01:33:00,23.6,21.9,29.76,WSW,253,0.0,0.0,93,0.00,,---,0.00,VWS V14.00,2013-01-19 07:33:00,
2013-01-19 01:38:00,23.6,21.9,29.76,SSW,211,0.0,0.0,93,0.00,,---,0.00,VWS V14.00,2013-01-19 07:38:00,
2013-01-19 01:43:00,23.6,21.9,29.75,SSW,211,0.0,0.0,93,0.00,,---,0.00,VWS V14.00,2013-01-19 07:43:00,
2013-01-19 01:48:00,23.6,21.9,29.75,SSW,211,0.0,0.0,93,0.00,,---,0.00,VWS V14.00,2013-01-19 07:48:00,
2013-01-19 01:53:00,23.3,21.6,29.76,SSW,211,0.0,0.0,93,0.00,,---,0.00,VWS V14.00,2013-01-19 07:53:00,
2013-01-19 01:58:00,23.2,21.5,29.76,SSW,211,0.0,0.0,93,0.00,,---,0.00,VWS V14.00,2013-01-19 07:58:00,
2013-01-19 02:00:00,23.2,21.5,29.76,SSW,211,0.0,0.0,93,0.00,,---,0.00,VWS V14.00,2013-01-19 08:00:00,
2013-01-19 02:03:00,23.4,21.9,29.76,SSW,211,0.0,0.0,94,0.00,,---,0.00,VWS V14.00,2013-01-19 08:03:00,
2013-01-19 02:08:00,23.6,22.1,29.76,SSW,211,0.0,0.0,94,0.00,,---,0.00,VWS V14.00,2013-01-19 08:08:00,
2013-01-19 02:13:00,24.0,22.5,29.76,SSW,211,0.0,0.0,94,0.00,,---,0.00,VWS V14.00,2013-01-19 08:13:00,
2013-01-19 02:18:00,24.1,22.6,29.76,SSW,211,0.0,0.0,94,0.00,,---,0.00,VWS V14.00,2013-01-19 08:18:00,
2013-01-19 02:23:00,24.3,22.8,29.76,SSW,211,0.0,0.0,94,0.00,,---,0.00,VWS V14.00,2013-01-19 08:23:00,
2013-01-19 02:28:00,24.5,23.0,29.75,SSW,211,0.0,0.0,94,0.00,,---,0.00,VWS V14.00,2013-01-19 08:28:00,
2013-01-19 02:30:00,24.4,22.9,29.76,SSW,211,0.0,0.0,94,0.00,,---,0.00,VWS V14.00,2013-01-19 08:30:00,
2013-01-19 02:33:00,24.7,23.2,29.75,SSW,211,0.0,0.0,94,0.00,,---,0.00,VWS V14.00,2013-01-19 08:33:00,
2013-01-19 02:38:00,24.5,23.0,29.75,SSW,211,0.0,0.0,94,0.00,,---,0.00,VWS V14.00,2013-01-19 08:38:00,
2013-01-19 02:43:00,24.4,22.9,29.75,SSW,211,1.0,1.0,94,0.00,,---,0.00,VWS V14.00,2013-01-19 08:43:00,
2013-01-19 02:48:00,24.5,23.0,29.74,SSW,211,0.0,4.0,94,0.00,,---,0.00,VWS V14.00,2013-01-19 08:48:00,
2013-01-19 02:53:00,25.0,23.8,29.74,South,174,4.0,4.0,95,0.00,,---,0.00,VWS V14.00,2013-01-19 08:53:00,
2013-01-19 02:58:00,26.1,25.1,29.74,SSE,165,2.0,2.0,96,0.00,,---,0.00,VWS V14.00,2013-01-19 08:58:00,
2013-01-19 03:00:00,26.0,25.0,29.74,SSE,165,1.0,6.0,96,0.00,,---,0.00,VWS V14.00,2013-01-19 09:00:00,
2013-01-19 03:03:00,27.0,26.0,29.74,South,190,0.0,3.0,96,0.00,,---,0.00,VWS V14.00,2013-01-19 09:03:00,
2013-01-19 03:08:00,27.7,26.7,29.74,SSW,200,3.0,5.0,96,0.00,,---,0.00,VWS V14.00,2013-01-19 09:08:00,
2013-01-19 03:13:00,27.8,26.6,29.74,SW,215,2.0,5.0,95,0.00,,---,0.00,VWS V14.00,2013-01-19 09:13:00,
2013-01-19 03:18:00,27.8,26.3,29.75,West,261,2.0,5.0,94,0.00,,---,0.00,VWS V14.00,2013-01-19 09:18:00,
2013-01-19 03:23:00,27.8,26.3,29.75,West,261,0.0,5.0,94,0.00,,---,0.00,VWS V14.00,2013-01-19 09:23:00,
2013-01-19 03:28:00,27.8,26.3,29.74,West,261,0.0,0.0,94,0.00,,---,0.00,VWS V14.00,2013-01-19 09:28:00,
2013-01-19 03:30:00,27.8,26.3,29.74,West,261,0.0,5.0,94,0.00,,---,0.00,VWS V14.00,2013-01-19 09:30:00,
2013-01-19 03:33:00,27.8,26.3,29.74,West,261,0.0,0.0,94,0.00,,---,0.00,VWS V14.00,2013-01-19 09:33:00,
2013-01-19 03:38:00,27.7,26.2,29.73,West,261,0.0,0.0,94,0.00,,---,0.00,VWS V14.00,2013-01-19 09:38:00,
2013-01-19 03:43:00,27.6,26.1,29.73,West,261,0.0,0.0,94,0.00,,---,0.00,VWS V14.00,2013-01-19 09:43:00,
2013-01-19 03:48:00,27.6,26.1,29.72,WSW,247,0.0,0.0,94,0.00,,---,0.00,VWS V14.00,2013-01-19 09:48:00,
2013-01-19 03:53:00,27.4,25.6,29.71,WSW,247,0.0,0.0,93,0.00,,---,0.00,VWS V14.00,2013-01-19 09:53:00,
2013-01-19 03:58:00,27.3,25.8,29.70,WSW,246,0.0,0.0,94,0.00,,---,0.00,VWS V14.00,2013-01-19 09:58:00,
2013-01-19 04:00:00,27.2,25.5,29.71,WSW,246,0.0,0.0,93,0.00,,---,0.00,VWS V14.00,2013-01-19 10:00:00,
2013-01-19 04:03:00,27.2,25.5,29.70,WSW,246,0.0,0.0,93,0.00,,---,0.00,VWS V14.00,2013-01-19 10:03:00,
2013-01-19 04:08:00,26.9,25.1,29.69,WSW,246,0.0,0.0,93,0.00,,---,0.00,VWS V14.00,2013-01-19 10:08:00,
2013-01-19 04:12:00,26.9,25.4,29.68,SSE,159,2.0,6.0,94,0.00,,---,0.00,VWS V14.00,2013-01-19 10:12:00,
2013-01-19 04:17:00,27.3,25.8,29.69,SSE,157,1.0,6.0,94,0.00,,---,0.00,VWS V14.00,2013-01-19 10:17:00,
2013-01-19 04:22:00,28.1,26.9,29.70,SW,219,0.0,6.0,95,0.00,,---,0.00,VWS V14.00,2013-01-19 10:22:00,
2013-01-19 04:27:00,28.4,26.9,29.71,SW,230,0.0,0.0,94,0.00,,---,0.00,VWS V14.00,2013-01-19 10:27:00,
2013-01-19 04:30:00,28.3,26.8,29.71,SW,230,0.0,6.0,94,0.00,,---,0.00,VWS V14.00,2013-01-19 10:30:00,
2013-01-19 04:32:00,28.3,26.8,29.72,WSW,242,0.0,0.0,94,0.00,,---,0.00,VWS V14.00,2013-01-19 10:32:00,
2013-01-19 04:37:00,28.3,26.5,29.72,WSW,243,0.0,0.0,93,0.00,,---,0.00,VWS V14.00,2013-01-19 10:37:00,
2013-01-19 04:42:00,28.2,26.4,29.73,WSW,243,0.0,0.0,93,0.00,,---,0.00,VWS V14.00,2013-01-19 10:42:00,
2013-01-19 04:47:00,28.1,26.3,29.72,WSW,244,0.0,0.0,93,0.00,,---,0.00,VWS V14.00,2013-01-19 10:47:00,
2013-01-19 04:52:00,28.1,26.3,29.71,WSW,244,0.0,0.0,93,0.00,,---,0.00,VWS V14.00,2013-01-19 10:52:00,
2013-01-19 04:57:00,27.9,26.1,29.71,WSW,244,0.0,0.0,93,0.00,,---,0.00,VWS V14.00,2013-01-19 10:57:00,
2013-01-19 05:00:00,27.9,26.1,29.71,WSW,244,0.0,0.0,93,0.00,,---,0.00,VWS V14.00,2013-01-19 11:00:00,
2013-01-19 05:02:00,27.7,25.9,29.70,WSW,242,0.0,0.0,93,0.00,,---,0.00,VWS V14.00,2013-01-19 11:02:00,
2013-01-19 05:08:00,27.4,25.6,29.71,WSW,242,0.0,0.0,93,0.00,,---,0.00,VWS V14.00,2013-01-19 11:08:00,
2013-01-19 05:12:00,27.1,25.4,29.71,WSW,242,0.0,0.0,93,0.00,,---,0.00,VWS V14.00,2013-01-19 11:12:00,
2013-01-19 05:30:00,26.1,24.1,29.71,WSW,242,0.0,0.0,92,0.00,,---,0.00,VWS V14.00,2013-01-19 11:30:00,
2013-01-19 06:00:00,24.4,22.7,29.70,WSW,242,0.0,0.0,93,0.00,,---,0.00,VWS V14.00,2013-01-19 12:00:00,
2013-01-19 06:30:00,23.7,22.0,29.68,WSW,242,0.0,0.0,93,0.00,,---,0.00,VWS V14.00,2013-01-19 12:30:00,
2013-01-19 06:47:00,24.0,22.8,29.69,WSW,242,0.0,0.0,95,0.00,,---,0.00,VWS V14.00,2013-01-19 12:47:00,
2013-01-19 06:48:00,24.1,22.9,29.69,WSW,242,0.0,0.0,95,0.00,,---,0.00,VWS V14.00,2013-01-19 12:48:00,
2013-01-19 06:53:00,24.4,23.2,29.69,WSW,242,0.0,0.0,95,0.00,,---,0.00,VWS V14.00,2013-01-19 12:53:00,
2013-01-19 06:58:00,24.5,23.3,29.69,WSW,242,0.0,0.0,95,0.00,,---,0.00,VWS V14.00,2013-01-19 12:58:00,
2013-01-19 07:00:00,24.5,23.3,29.69,WSW,242,0.0,0.0,95,0.00,,---,0.00,VWS V14.00,2013-01-19 13:00:00,
2013-01-19 07:03:00,24.7,23.5,29.69,WSW,242,0.0,0.0,95,0.00,,---,0.00,VWS V14.00,2013-01-19 13:03:00,
2013-01-19 07:08:00,24.8,23.6,29.69,WSW,242,0.0,0.0,95,0.00,,---,0.00,VWS V14.00,2013-01-19 13:08:00,
2013-01-19 07:13:00,24.9,23.7,29.70,WSW,242,0.0,0.0,95,0.00,,---,0.00,VWS V14.00,2013-01-19 13:13:00,
2013-01-19 07:18:00,24.8,23.6,29.70,WSW,242,0.0,0.0,95,0.00,,---,0.00,VWS V14.00,2013-01-19 13:18:00,
2013-01-19 07:23:00,24.9,23.7,29.70,WSW,242,0.0,0.0,95,0.00,,---,0.00,VWS V14.00,2013-01-19 13:23:00,
2013-01-19 07:28:00,24.9,23.7,29.70,WSW,242,0.0,0.0,95,0.00,,---,0.00,VWS V14.00,2013-01-19 13:28:00,
2013-01-19 07:30:00,25.0,23.8,29.70,WSW,242,0.0,0.0,95,0.00,,---,0.00,VWS V14.00,2013-01-19 13:30:00,
2013-01-19 07:33:00,24.9,23.7,29.70,WSW,242,0.0,0.0,95,0.00,,---,0.00,VWS V14.00,2013-01-19 13:33:00,
2013-01-19 07:38:00,24.8,23.6,29.70,WSW,242,0.0,0.0,95,0.00,,---,0.00,VWS V14.00,2013-01-19 13:38:00,
2013-01-19 07:43:00,24.9,23.7,29.71,WSW,242,0.0,0.0,95,0.00,,---,0.00,VWS V14.00,2013-01-19 13:43:00,
2013-01-19 07:48:00,24.9,23.7,29.70,WSW,242,0.0,0.0,95,0.00,,---,0.00,VWS V14.00,2013-01-19 13:48:00,
2013-01-19 07:53:00,25.2,24.0,29.71,WSW,242,0.0,0.0,95,0.00,,---,0.00,VWS V14.00,2013-01-19 13:53:00,
2013-01-19 07:58:00,25.4,24.2,29.71,WSW,242,0.0,0.0,95,0.00,,---,0.00,VWS V14.00,2013-01-19 13:58:00,
2013-01-19 08:00:00,25.4,24.2,29.71,WSW,242,0.0,0.0,95,0.00,,---,0.00,VWS V14.00,2013-01-19 14:00:00,
2013-01-19 08:03:00,25.6,24.4,29.71,WSW,242,0.0,0.0,95,0.00,,---,0.00,VWS V14.00,2013-01-19 14:03:00,
2013-01-19 08:08:00,26.3,25.3,29.71,West,271,0.0,0.0,96,0.00,,---,0.00,VWS V14.00,2013-01-19 14:08:00,
2013-01-19 08:13:00,27.3,26.3,29.72,West,281,0.0,4.0,96,0.00,,---,0.00,VWS V14.00,2013-01-19 14:13:00,
2013-01-19 08:18:00,28.0,27.0,29.72,West,281,0.0,4.0,96,0.00,,---,0.00,VWS V14.00,2013-01-19 14:18:00,
2013-01-19 08:23:00,28.7,28.0,29.72,WNW,282,0.0,5.0,97,0.00,,---,0.00,VWS V14.00,2013-01-19 14:23:00,
2013-01-19 08:28:00,29.7,29.0,29.72,West,267,5.0,5.0,97,0.00,,---,0.00,VWS V14.00,2013-01-19 14:28:00,
2013-01-19 08:30:00,29.5,28.8,29.72,West,267,1.0,7.0,97,0.00,,---,0.00,VWS V14.00,2013-01-19 14:30:00,
2013-01-19 08:33:00,30.7,29.7,29.72,West,278,4.0,8.0,96,0.00,,---,0.00,VWS V14.00,2013-01-19 14:33:00,
2013-01-19 08:38:00,31.7,30.2,29.72,NW,304,3.0,9.0,94,0.00,,---,0.00,VWS V14.00,2013-01-19 14:38:00,
2013-01-19 08:43:00,32.4,30.3,29.72,NW,308,5.0,13.0,92,0.00,,---,0.00,VWS V14.00,2013-01-19 14:43:00,
2013-01-19 08:48:00,32.8,30.2,29.72,WNW,289,2.0,13.0,90,0.00,,---,0.00,VWS V14.00,2013-01-19 14:48:00,
2013-01-19 08:53:00,32.9,30.0,29.72,WNW,288,4.0,13.0,89,0.00,,---,0.00,VWS V14.00,2013-01-19 14:53:00,
2013-01-19 08:58:00,33.0,29.8,29.73,WNW,298,4.0,7.0,88,0.00,,---,0.00,VWS V14.00,2013-01-19 14:58:00,
2013-01-19 09:00:00,33.0,30.1,29.73,WNW,286,3.0,13.0,89,0.00,,---,0.00,VWS V14.00,2013-01-19 15:00:00,
2013-01-19 09:03:00,33.2,30.0,29.73,NW,304,7.0,11.0,88,0.00,,---,0.00,VWS V14.00,2013-01-19 15:03:00,
2013-01-19 09:08:00,33.3,30.1,29.73,West,281,3.0,11.0,88,0.00,,---,0.00,VWS V14.00,2013-01-19 15:08:00,
2013-01-19 09:13:00,33.4,30.0,29.73,West,266,5.0,11.0,87,0.00,,---,0.00,VWS V14.00,2013-01-19 15:13:00,
2013-01-19 09:18:00,33.6,30.1,29.74,WNW,288,4.0,11.0,87,0.00,,---,0.00,VWS V14.00,2013-01-19 15:18:00,
2013-01-19 09:23:00,33.7,30.0,29.74,WNW,301,5.0,11.0,86,0.00,,---,0.00,VWS V14.00,2013-01-19 15:23:00,
2013-01-19 09:28:00,33.8,30.1,29.75,West,263,9.0,9.0,86,0.00,,---,0.00,VWS V14.00,2013-01-19 15:28:00,
2013-01-19 09:30:00,33.8,30.1,29.75,WNW,298,4.0,11.0,86,0.00,,---,0.00,VWS V14.00,2013-01-19 15:30:00,
2013-01-19 09:33:00,33.9,30.2,29.75,West,277,5.0,9.0,86,0.00,,---,0.00,VWS V14.00,2013-01-19 15:33:00,
2013-01-19 09:38:00,34.1,30.1,29.75,WNW,296,7.0,10.0,85,0.00,,---,0.00,VWS V14.00,2013-01-19 15:38:00,
2013-01-19 09:43:00,34.3,30.3,29.75,WNW,297,4.0,15.0,85,0.00,,---,0.00,VWS V14.00,2013-01-19 15:43:00,
2013-01-19 09:48:00,34.5,30.5,29.75,West,279,6.0,15.0,85,0.00,,---,0.00,VWS V14.00,2013-01-19 15:48:00,
2013-01-19 09:53:00,34.7,30.4,29.75,NW,304,2.0,15.0,84,0.00,,---,0.00,VWS V14.00,2013-01-19 15:53:00,
2013-01-19 09:58:00,34.8,30.5,29.75,NW,306,7.0,7.0,84,0.00,,---,0.00,VWS V14.00,2013-01-19 15:58:00,
2013-01-19 10:00:00,34.8,30.5,29.75,WNW,289,0.0,15.0,84,0.00,,---,0.00,VWS V14.00,2013-01-19 16:00:00,
2013-01-19 10:03:00,35.0,30.7,29.76,WNW,297,7.0,12.0,84,0.00,,---,0.00,VWS V14.00,2013-01-19 16:03:00,
2013-01-19 10:08:00,35.3,30.7,29.76,WNW,292,7.0,12.0,83,0.00,,---,0.00,VWS V14.00,2013-01-19 16:08:00,
2013-01-19 10:13:00,35.5,30.9,29.76,WNW,302,13.0,14.0,83,0.00,,---,0.00,VWS V14.00,2013-01-19 16:13:00,
2013-01-19 10:18:00,35.6,31.0,29.76,WNW,298,9.0,14.0,83,0.00,,---,0.00,VWS V14.00,2013-01-19 16:18:00,
2013-01-19 10:23:00,35.9,31.2,29.77,WNW,284,4.0,15.0,83,0.00,,---,0.00,VWS V14.00,2013-01-19 16:23:00,
2013-01-19 10:28:00,36.4,31.4,29.77,West,281,5.0,11.0,82,0.00,,---,0.00,VWS V14.00,2013-01-19 16:28:00,
2013-01-19 10:30:00,36.3,31.3,29.77,WNW,290,5.0,15.0,82,0.00,,---,0.00,VWS V14.00,2013-01-19 16:30:00,
2013-01-19 10:33:00,36.8,31.5,29.77,NW,321,10.0,15.0,81,0.00,,---,0.00,VWS V14.00,2013-01-19 16:33:00,
2013-01-19 10:38:00,37.4,32.1,29.77,NW,307,8.0,18.0,81,0.00,,---,0.00,VWS V14.00,2013-01-19 16:38:00,
2013-01-19 10:43:00,37.9,32.3,29.77,NW,305,8.0,18.0,80,0.00,,---,0.00,VWS V14.00,2013-01-19 16:43:00,
2013-01-19 10:48:00,38.0,32.1,29.77,WNW,285,9.0,20.0,79,0.00,,---,0.00,VWS V14.00,2013-01-19 16:48:00,
2013-01-19 10:53:00,37.9,32.0,29.77,NW,317,6.0,20.0,79,0.00,,---,0.00,VWS V14.00,2013-01-19 16:53:00,
2013-01-19 10:58:00,37.7,31.8,29.76,NW,304,8.0,16.0,79,0.00,,---,0.00,VWS V14.00,2013-01-19 16:58:00,
2013-01-19 11:00:00,37.8,31.9,29.76,NW,306,14.0,20.0,79,0.00,,---,0.00,VWS V14.00,2013-01-19 17:00:00,
2013-01-19 11:03:00,37.7,31.8,29.76,WNW,291,8.0,16.0,79,0.00,,---,0.00,VWS V14.00,2013-01-19 17:03:00,
2013-01-19 11:08:00,38.1,32.2,29.76,West,276,8.0,17.0,79,0.00,,---,0.00,VWS V14.00,2013-01-19 17:08:00,
2013-01-19 11:13:00,38.5,32.6,29.76,NW,308,12.0,17.0,79,0.00,,---,0.00,VWS V14.00,2013-01-19 17:13:00,
2013-01-19 11:18:00,38.4,32.2,29.76,WNW,294,13.0,18.0,78,0.00,,---,0.00,VWS V14.00,2013-01-19 17:18:00,
2013-01-19 11:23:00,38.4,32.5,29.76,WNW,290,11.0,20.0,79,0.00,,---,0.00,VWS V14.00,2013-01-19 17:23:00,
2013-01-19 11:28:00,38.6,32.3,29.77,WNW,286,10.0,17.0,78,0.00,,---,0.00,VWS V14.00,2013-01-19 17:28:00,
2013-01-19 11:30:00,38.5,32.6,29.77,West,263,10.0,20.0,79,0.00,,---,0.00,VWS V14.00,2013-01-19 17:30:00,
2013-01-19 11:33:00,38.4,32.2,29.76,West,280,10.0,17.0,78,0.00,,---,0.00,VWS V14.00,2013-01-19 17:33:00,
2013-01-19 11:38:00,38.1,32.2,29.76,West,265,9.0,17.0,79,0.00,,---,0.00,VWS V14.00,2013-01-19 17:38:00,
2013-01-19 11:43:00,37.9,32.0,29.76,SW,236,11.0,17.0,79,0.00,,---,0.00,VWS V14.00,2013-01-19 17:43:00,
2013-01-19 11:48:00,38.0,32.4,29.76,NW,312,10.0,17.0,80,0.00,,---,0.00,VWS V14.00,2013-01-19 17:48:00,
2013-01-19 11:53:00,38.2,32.6,29.76,West,260,9.0,17.0,80,0.00,,---,0.00,VWS V14.00,2013-01-19 17:53:00,
2013-01-19 11:58:00,38.4,32.8,29.76,WNW,292,5.0,10.0,80,0.00,,---,0.00,VWS V14.00,2013-01-19 17:58:00,
2013-01-19 12:00:00,38.3,32.7,29.76,West,271,6.0,17.0,80,0.00,,---,0.00,VWS V14.00,2013-01-19 18:00:00,
2013-01-19 12:04:00,38.6,32.7,29.76,West,263,15.0,17.0,79,0.00,,---,0.00,VWS V14.00,2013-01-19 18:04:00,
2013-01-19 12:09:00,38.6,32.3,29.76,NW,306,17.0,24.0,78,0.00,,---,0.00,VWS V14.00,2013-01-19 18:09:00,
2013-01-19 12:14:00,38.5,32.2,29.76,NW,311,7.0,24.0,78,0.00,,---,0.00,VWS V14.00,2013-01-19 18:14:00,
2013-01-19 12:19:00,38.6,32.0,29.75,West,278,13.0,24.0,77,0.00,,---,0.00,VWS V14.00,2013-01-19 18:19:00,
2013-01-19 12:24:00,38.8,32.2,29.75,WNW,292,10.0,24.0,77,0.00,,---,0.00,VWS V14.00,2013-01-19 18:24:00,
2013-01-19 12:29:00,39.0,32.1,29.75,NW,305,8.0,21.0,76,0.00,,---,0.00,VWS V14.00,2013-01-19 18:29:00,
2013-01-19 12:30:00,38.9,32.3,29.75,NW,313,8.0,24.0,77,0.00,,---,0.00,VWS V14.00,2013-01-19 18:30:00,
2013-01-19 12:34:00,39.1,32.2,29.75,WNW,287,6.0,21.0,76,0.00,,---,0.00,VWS V14.00,2013-01-19 18:34:00,
2013-01-19 12:39:00,39.1,32.5,29.75,NW,306,12.0,23.0,77,0.00,,---,0.00,VWS V14.00,2013-01-19 18:39:00,
2013-01-19 12:44:00,38.9,32.3,29.76,WNW,292,4.0,23.0,77,0.00,,---,0.00,VWS V14.00,2013-01-19 18:44:00,
2013-01-19 12:49:00,38.8,32.5,29.76,WSW,257,11.0,25.0,78,0.00,,---,0.00,VWS V14.00,2013-01-19 18:49:00,
2013-01-19 12:54:00,38.7,32.4,29.76,NW,311,15.0,25.0,78,0.00,,---,0.00,VWS V14.00,2013-01-19 18:54:00,
2013-01-19 12:59:00,38.6,32.3,29.76,WNW,294,18.0,22.0,78,0.00,,---,0.00,VWS V14.00,2013-01-19 18:59:00,
2013-01-19 13:00:00,38.7,32.4,29.76,WNW,294,21.0,25.0,78,0.00,,---,0.00,VWS V14.00,2013-01-19 19:00:00,
2013-01-19 13:05:00,38.6,32.3,29.76,WNW,296,13.0,22.0,78,0.00,,---,0.00,VWS V14.00,2013-01-19 19:05:00,
2013-01-19 13:10:00,38.6,32.0,29.75,WNW,295,13.0,22.0,77,0.00,,---,0.00,VWS V14.00,2013-01-19 19:10:00,
2013-01-19 13:15:00,38.5,32.2,29.76,WNW,295,18.0,28.0,78,0.00,,---,0.00,VWS V14.00,2013-01-19 19:15:00,
2013-01-19 13:20:00,38.3,32.0,29.76,NW,310,29.0,34.0,78,0.00,,---,0.01,VWS V14.00,2013-01-19 19:20:00,
2013-01-19 13:25:00,37.5,31.6,29.77,NW,317,22.0,34.0,79,0.00,,---,0.01,VWS V14.00,2013-01-19 19:25:00,
2013-01-19 13:30:00,34.7,29.2,29.79,NW,309,23.0,35.0,80,0.00,,---,0.01,VWS V14.00,2013-01-19 19:30:00,
2013-01-19 13:35:00,32.6,27.4,29.79,NW,315,17.0,40.0,81,0.00,,---,0.01,VWS V14.00,2013-01-19 19:35:00,
2013-01-19 13:40:00,31.2,24.5,29.81,WNW,299,35.0,40.0,76,0.00,,---,0.01,VWS V14.00,2013-01-19 19:40:00,
2013-01-19 13:45:00,29.9,22.0,29.81,WNW,302,29.0,41.0,72,0.00,,---,0.01,VWS V14.00,2013-01-19 19:45:00,
2013-01-19 13:50:00,28.8,21.9,29.82,NNW,336,18.0,41.0,75,0.00,,---,0.01,VWS V14.00,2013-01-19 19:50:00,
2013-01-19 13:55:00,28.5,22.2,29.81,WNW,296,20.0,41.0,77,0.00,,---,0.01,VWS V14.00,2013-01-19 19:55:00,
2013-01-19 14:00:00,28.5,22.5,29.82,NW,321,14.0,41.0,78,0.00,,---,0.01,VWS V14.00,2013-01-19 20:00:00,
2013-01-19 14:01:00,28.5,22.5,29.82,NW,308,14.0,24.0,78,0.00,,---,0.01,VWS V14.00,2013-01-19 20:01:00,
2013-01-19 14:06:00,28.1,21.2,29.82,NW,307,25.0,32.0,75,0.00,,---,0.01,VWS V14.00,2013-01-19 20:06:00,
2013-01-19 14:11:00,26.6,18.8,29.83,NW,306,26.0,32.0,72,0.00,,---,0.01,VWS V14.00,2013-01-19 20:11:00,
2013-01-19 14:16:00,25.5,18.4,29.84,NW,323,13.0,33.0,74,0.00,,---,0.01,VWS V14.00,2013-01-19 20:16:00,
2013-01-19 14:21:00,25.3,17.5,29.85,West,262,9.0,33.0,72,0.00,,---,0.01,VWS V14.00,2013-01-19 20:21:00,
2013-01-19 14:26:00,24.8,16.1,29.85,NW,311,29.0,33.0,69,0.00,,---,0.01,VWS V14.00,2013-01-19 20:26:00,
2013-01-19 14:30:00,24.7,16.0,29.85,NW,312,28.0,33.0,69,0.00,,---,0.01,VWS V14.00,2013-01-19 20:30:00,
2013-01-19 14:31:00,23.3,14.0,29.86,NW,311,18.0,33.0,67,0.00,,---,0.01,VWS V14.00,2013-01-19 20:31:00,
2013-01-19 14:36:00,22.5,13.9,29.87,WNW,286,13.0,33.0,69,0.00,,---,0.01,VWS V14.00,2013-01-19 20:36:00,
2013-01-19 14:42:00,21.0,12.4,29.87,WNW,296,17.0,36.0,69,0.00,,---,0.01,VWS V14.00,2013-01-19 20:42:00,
2013-01-19 14:46:00,20.8,12.9,29.88,WNW,302,22.0,36.0,71,0.00,,---,0.01,VWS V14.00,2013-01-19 20:46:00,
2013-01-19 14:51:00,20.3,12.7,29.88,WNW,300,21.0,36.0,72,0.00,,---,0.01,VWS V14.00,2013-01-19 20:51:00,
2013-01-19 14:57:00,20.0,12.4,29.89,NW,321,17.0,36.0,72,0.00,,---,0.01,VWS V14.00,2013-01-19 20:57:00,
2013-01-19 15:00:00,19.9,12.4,29.89,WNW,288,25.0,36.0,72,0.00,,---,0.01,VWS V14.00,2013-01-19 21:00:00,
2013-01-19 15:02:00,19.6,12.1,29.89,NNW,336,22.0,31.0,72,0.00,,---,0.01,VWS V14.00,2013-01-19 21:02:00,
2013-01-19 15:07:00,19.3,11.8,29.90,West,278,15.0,33.0,72,0.00,,---,0.01,VWS V14.00,2013-01-19 21:07:00,
2013-01-19 15:12:00,19.0,10.8,29.91,WNW,297,29.0,37.0,70,0.00,,---,0.01,VWS V14.00,2013-01-19 21:12:00,
2013-01-19 15:17:00,18.3,9.5,29.91,WNW,302,32.0,37.0,68,0.00,,---,0.01,VWS V14.00,2013-01-19 21:17:00,
2013-01-19 15:22:00,18.1,9.7,29.92,WNW,302,17.0,37.0,69,0.00,,---,0.01,VWS V14.00,2013-01-19 21:22:00,
2013-01-19 15:27:00,18.1,9.3,29.92,WNW,288,18.0,37.0,68,0.00,,---,0.01,VWS V14.00,2013-01-19 21:27:00,
2013-01-19 15:30:00,18.1,9.0,29.92,WNW,294,15.0,37.0,67,0.00,,---,0.01,VWS V14.00,2013-01-19 21:30:00,
2013-01-19 15:32:00,17.7,8.3,29.93,NNW,329,18.0,36.0,66,0.00,,---,0.01,VWS V14.00,2013-01-19 21:32:00,
2013-01-19 15:37:00,17.5,8.4,29.94,NW,308,27.0,36.0,67,0.00,,---,0.01,VWS V14.00,2013-01-19 21:37:00,
2013-01-19 15:42:00,17.1,8.4,29.94,NNW,327,23.0,36.0,68,0.00,,---,0.01,VWS V14.00,2013-01-19 21:42:00,
2013-01-19 15:47:00,16.9,8.2,29.95,WNW,287,17.0,36.0,68,0.00,,---,0.01,VWS V14.00,2013-01-19 21:47:00,
2013-01-19 15:52:00,16.8,8.4,29.95,West,278,14.0,36.0,69,0.00,,---,0.01,VWS V14.00,2013-01-19 21:52:00,
2013-01-19 15:57:00,16.7,8.3,29.95,West,262,9.0,17.0,69,0.00,,---,0.01,VWS V14.00,2013-01-19 21:57:00,
2013-01-19 16:00:00,16.7,8.3,29.95,WNW,301,14.0,36.0,69,0.00,,---,0.01,VWS V14.00,2013-01-19 22:00:00,
2013-01-19 16:03:00,16.4,7.4,29.95,WNW,297,18.0,30.0,67,0.00,,---,0.01,VWS V14.00,2013-01-19 22:03:00,
2013-01-19 16:08:00,16.1,7.1,29.96,NW,305,16.0,31.0,67,0.00,,---,0.01,VWS V14.00,2013-01-19 22:08:00,
2013-01-19 16:13:00,15.9,7.2,29.96,NW,306,26.0,32.0,68,0.00,,---,0.01,VWS V14.00,2013-01-19 22:13:00,
2013-01-19 16:18:00,15.8,7.1,29.97,NW,322,12.0,32.0,68,0.00,,---,0.01,VWS V14.00,2013-01-19 22:18:00,
2013-01-19 16:23:00,15.6,6.9,29.98,NNW,342,15.0,32.0,68,0.00,,---,0.01,VWS V14.00,2013-01-19 22:23:00,
2013-01-19 16:28:00,14.7,5.4,29.98,NW,315,13.0,24.0,66,0.00,,---,0.01,VWS V14.00,2013-01-19 22:28:00,
2013-01-19 16:30:00,14.9,5.6,29.98,NW,318,11.0,32.0,66,0.00,,---,0.01,VWS V14.00,2013-01-19 22:30:00,
2013-01-19 16:33:00,14.1,5.8,29.99,NW,304,21.0,30.0,69,0.00,,---,0.01,VWS V14.00,2013-01-19 22:33:00,
2013-01-19 16:38:00,13.7,5.4,30.00,WNW,297,12.0,31.0,69,0.00,,---,0.01,VWS V14.00,2013-01-19 22:38:00,
2013-01-19 16:44:00,13.4,4.8,30.00,WNW,300,25.0,31.0,68,0.00,,---,0.01,VWS V14.00,2013-01-19 22:44:00,
2013-01-19 16:49:00,13.0,4.8,30.01,NW,307,16.0,33.0,69,0.00,,---,0.01,VWS V14.00,2013-01-19 22:49:00,
2013-01-19 16:54:00,12.6,4.4,30.01,NNW,333,17.0,33.0,69,0.00,,---,0.01,VWS V14.00,2013-01-19 22:54:00,
2013-01-19 16:59:00,12.3,3.8,30.02,NW,313,25.0,25.0,68,0.00,,---,0.01,VWS V14.00,2013-01-19 22:59:00,
2013-01-19 17:00:00,12.4,3.9,30.02,NW,316,11.0,33.0,68,0.00,,---,0.01,VWS V14.00,2013-01-19 23:00:00,
2013-01-19 17:04:00,12.0,3.8,30.03,NW,306,29.0,32.0,69,0.00,,---,0.01,VWS V14.00,2013-01-19 23:04:00,
2013-01-19 17:09:00,11.5,4.5,30.03,NW,309,14.0,32.0,73,0.00,,---,0.01,VWS V14.00,2013-01-19 23:09:00,
2013-01-19 17:14:00,11.3,4.6,30.04,WNW,286,9.0,32.0,74,0.00,,---,0.01,VWS V14.00,2013-01-19 23:14:00,
2013-01-19 17:19:00,11.2,4.0,30.05,WNW,292,15.0,32.0,72,0.00,,---,0.01,VWS V14.00,2013-01-19 23:19:00,
2013-01-19 17:24:00,10.9,4.2,30.05,WNW,297,20.0,32.0,74,0.00,,---,0.01,VWS V14.00,2013-01-19 23:24:00,
2013-01-19 17:29:00,10.7,3.8,30.06,NNW,327,13.0,28.0,73,0.00,,---,0.01,VWS V14.00,2013-01-19 23:29:00,
2013-01-19 17:30:00,10.8,4.2,30.05,WNW,300,24.0,32.0,74,0.00,,---,0.01,VWS V14.00,2013-01-19 23:30:00,
2013-01-19 17:34:00,10.5,3.6,30.06,WNW,298,21.0,28.0,73,0.00,,---,0.01,VWS V14.00,2013-01-19 23:34:00,
2013-01-19 17:39:00,10.4,3.5,30.06,NW,306,14.0,28.0,73,0.00,,---,0.01,VWS V14.00,2013-01-19 23:39:00,
2013-01-19 17:44:00,10.2,3.6,30.07,WNW,288,14.0,29.0,74,0.00,,---,0.01,VWS V14.00,2013-01-19 23:44:00,
2013-01-19 17:49:00,9.8,3.5,30.07,NW,305,16.0,32.0,75,0.00,,---,0.01,VWS V14.00,2013-01-19 23:49:00,
2013-01-19 17:54:00,9.4,3.1,30.08,NW,304,24.0,32.0,75,0.00,,---,0.01,VWS V14.00,2013-01-19 23:54:00,
2013-01-19 17:59:00,9.1,2.5,30.08,WNW,283,17.0,28.0,74,0.00,,---,0.01,VWS V14.00,2013-01-19 23:59:00,
2013-01-19 18:00:00,9.2,2.6,30.08,West,269,16.0,32.0,74,0.00,,---,0.01,VWS V14.00,2013-01-20 00:00:00,
2013-01-19 18:05:00,8.8,2.2,30.09,WNW,292,11.0,28.0,74,0.00,,---,0.01,VWS V14.00,2013-01-20 00:05:00,
2013-01-19 18:10:00,8.6,2.6,30.09,West,279,23.0,28.0,76,0.00,,---,0.01,VWS V14.00,2013-01-20 00:10:00,
2013-01-19 18:15:00,8.5,1.9,30.10,NW,314,22.0,33.0,74,0.00,,---,0.01,VWS V14.00,2013-01-20 00:15:00,
2013-01-19 18:20:00,8.4,1.5,30.10,NW,313,16.0,33.0,73,0.00,,---,0.01,VWS V14.00,2013-01-20 00:20:00,
2013-01-19 18:25:00,8.2,1.4,30.10,NW,317,15.0,33.0,73,0.00,,---,0.01,VWS V14.00,2013-01-20 00:25:00,
2013-01-19 18:30:00,7.9,1.1,30.11,NNW,333,19.0,30.0,73,0.00,,---,0.01,VWS V14.00,2013-01-20 00:30:00,
2013-01-19 18:35:00,7.7,0.9,30.11,WNW,302,18.0,30.0,73,0.00,,---,0.01,VWS V14.00,2013-01-20 00:35:00,
2013-01-19 18:40:00,7.5,1.0,30.12,North,5,17.0,30.0,74,0.00,,---,0.01,VWS V14.00,2013-01-20 00:40:00,
2013-01-19 18:45:00,7.2,-0.5,30.13,NW,306,15.0,30.0,70,0.00,,---,0.01,VWS V14.00,2013-01-20 00:45:00,
2013-01-19 18:50:00,6.8,-0.9,30.13,WNW,294,17.0,30.0,70,0.00,,---,0.01,VWS V14.00,2013-01-20 00:50:00,
2013-01-19 18:55:00,6.4,-1.3,30.14,NW,323,17.0,30.0,70,0.00,,---,0.01,VWS V14.00,2013-01-20 00:55:00,
2013-01-19 19:00:00,6.3,-1.4,30.14,NW,326,18.0,30.0,70,0.00,,---,0.01,VWS V14.00,2013-01-20 01:00:00,
2013-01-19 19:01:00,6.2,-1.5,30.14,WNW,295,14.0,23.0,70,0.00,,---,0.01,VWS V14.00,2013-01-20 01:01:00,
2013-01-19 19:06:00,6.0,-1.4,30.14,NW,313,14.0,24.0,71,0.00,,---,0.01,VWS V14.00,2013-01-20 01:06:00,
2013-01-19 19:12:00,5.7,-1.7,30.14,WNW,288,23.0,28.0,71,0.00,,---,0.01,VWS V14.00,2013-01-20 01:12:00,
2013-01-19 19:17:00,5.5,-1.9,30.15,WNW,301,14.0,28.0,71,0.00,,---,0.01,VWS V14.00,2013-01-20 01:17:00,
2013-01-19 19:22:00,5.3,-1.8,30.15,NW,311,14.0,28.0,72,0.00,,---,0.01,VWS V14.00,2013-01-20 01:22:00,
2013-01-19 19:27:00,5.2,-1.8,30.16,NNW,329,23.0,23.0,72,0.00,,---,0.01,VWS V14.00,2013-01-20 01:27:00,
2013-01-19 19:30:00,5.2,-1.8,30.16,NW,323,15.0,28.0,72,0.00,,---,0.01,VWS V14.00,2013-01-20 01:30:00,
2013-01-19 19:32:00,5.0,-2.0,30.16,NW,316,17.0,27.0,72,0.00,,---,0.01,VWS V14.00,2013-01-20 01:32:00,
2013-01-19 19:37:00,4.8,-2.2,30.16,WNW,301,13.0,27.0,72,0.00,,---,0.01,VWS V14.00,2013-01-20 01:37:00,
2013-01-19 19:42:00,4.7,-2.3,30.16,NW,304,16.0,27.0,72,0.00,,---,0.01,VWS V14.00,2013-01-20 01:42:00,
2013-01-19 19:48:00,4.6,-2.7,30.17,WNW,300,22.0,29.0,71,0.00,,---,0.01,VWS V14.00,2013-01-20 01:48:00,
2013-01-19 19:53:00,4.5,-2.5,30.17,NW,305,13.0,29.0,72,0.00,,---,0.01,VWS V14.00,2013-01-20 01:53:00,
2013-01-19 19:58:00,4.4,-2.6,30.18,NNW,344,18.0,19.0,72,0.00,,---,0.01,VWS V14.00,2013-01-20 01:58:00,
2013-01-19 20:00:00,4.4,-2.6,30.18,NNW,329,18.0,29.0,72,0.00,,---,0.01,VWS V14.00,2013-01-20 02:00:00,
2013-01-19 20:03:00,4.2,-2.8,30.18,NW,319,11.0,21.0,72,0.00,,---,0.01,VWS V14.00,2013-01-20 02:03:00,
2013-01-19 20:08:00,4.1,-2.9,30.19,WNW,298,12.0,25.0,72,0.00,,---,0.01,VWS V14.00,2013-01-20 02:08:00,
2013-01-19 20:13:00,4.0,-2.7,30.19,NNW,337,10.0,25.0,73,0.00,,---,0.01,VWS V14.00,2013-01-20 02:13:00,
2013-01-19 20:18:00,3.9,-2.5,30.19,NW,315,15.0,25.0,74,0.00,,---,0.01,VWS V14.00,2013-01-20 02:18:00,
2013-01-19 20:23:00,3.8,-2.6,30.19,WNW,300,19.0,25.0,74,0.00,,---,0.01,VWS V14.00,2013-01-20 02:23:00,
2013-01-19 20:28:00,3.7,-2.4,30.20,NW,305,21.0,21.0,75,0.00,,---,0.01,VWS V14.00,2013-01-20 02:28:00,
2013-01-19 20:30:00,3.7,-2.4,30.20,NW,315,10.0,25.0,75,0.00,,---,0.01,VWS V14.00,2013-01-20 02:30:00,
2013-01-19 20:33:00,3.6,-2.5,30.20,NNW,327,16.0,24.0,75,0.00,,---,0.01,VWS V14.00,2013-01-20 02:33:00,
2013-01-19 20:38:00,3.6,-2.8,30.21,NW,310,17.0,24.0,74,0.00,,---,0.01,VWS V14.00,2013-01-20 02:38:00,
2013-01-19 20:44:00,3.5,-2.6,30.21,NW,314,11.0,24.0,75,0.00,,---,0.01,VWS V14.00,2013-01-20 02:44:00,
2013-01-19 20:49:00,3.4,-2.7,30.21,WNW,302,15.0,24.0,75,0.00,,---,0.01,VWS V14.00,2013-01-20 02:49:00,
2013-01-19 20:54:00,3.3,-2.5,30.21,NNW,336,10.0,24.0,76,0.00,,---,0.01,VWS V14.00,2013-01-20 02:54:00,
2013-01-19 20:59:00,3.2,-2.6,30.22,NW,309,10.0,19.0,76,0.00,,---,0.01,VWS V14.00,2013-01-20 02:59:00,
2013-01-19 21:00:00,3.3,-2.5,30.22,NW,324,19.0,27.0,76,0.00,,---,0.01,VWS V14.00,2013-01-20 03:00:00,
2013-01-19 21:04:00,3.2,-2.6,30.22,NNW,344,16.0,21.0,76,0.00,,---,0.01,VWS V14.00,2013-01-20 03:04:00,
2013-01-19 21:09:00,3.1,-2.7,30.22,NNW,338,10.0,21.0,76,0.00,,---,0.01,VWS V14.00,2013-01-20 03:09:00,
2013-01-19 21:15:00,3.1,-2.7,30.23,NW,305,18.0,21.0,76,0.00,,---,0.01,VWS V14.00,2013-01-20 03:15:00,
2013-01-19 21:20:00,3.0,-2.8,30.23,NW,309,14.0,22.0,76,0.00,,---,0.01,VWS V14.00,2013-01-20 03:20:00,
2013-01-19 21:25:00,2.9,-2.9,30.23,NNW,332,10.0,22.0,76,0.00,,---,0.01,VWS V14.00,2013-01-20 03:25:00,
2013-01-19 21:30:00,2.9,-2.9,30.24,NW,312,12.0,17.0,76,0.00,,---,0.01,VWS V14.00,2013-01-20 03:30:00,
2013-01-19 21:35:00,2.8,-3.0,30.24,NW,305,7.0,17.0,76,0.00,,---,0.01,VWS V14.00,2013-01-20 03:35:00,
2013-01-19 21:40:00,2.8,-2.8,30.25,West,281,11.0,18.0,77,0.00,,---,0.01,VWS V14.00,2013-01-20 03:40:00,
2013-01-19 21:45:00,2.7,-2.9,30.25,NNW,331,14.0,20.0,77,0.00,,---,0.01,VWS V14.00,2013-01-20 03:45:00,
2013-01-19 21:50:00,2.6,-3.0,30.25,WNW,301,10.0,23.0,77,0.00,,---,0.01,VWS V14.00,2013-01-20 03:50:00,
2013-01-19 21:55:00,2.6,-2.7,30.25,NW,312,10.0,23.0,78,0.00,,---,0.01,VWS V14.00,2013-01-20 03:55:00,
2013-01-19 22:00:00,2.5,-2.5,30.26,WNW,299,14.0,15.0,79,0.00,,---,0.01,VWS V14.00,2013-01-20 04:00:00,
2013-01-19 22:05:00,2.5,-2.5,30.26,NW,324,11.0,17.0,79,0.00,,---,0.01,VWS V14.00,2013-01-20 04:05:00,
2013-01-19 22:10:00,2.5,-2.2,30.26,NNW,331,11.0,18.0,80,0.00,,---,0.01,VWS V14.00,2013-01-20 04:10:00,
2013-01-19 22:15:00,2.4,-2.3,30.26,NNW,329,7.0,18.0,80,0.00,,---,0.01,VWS V14.00,2013-01-20 04:15:00,
2013-01-19 22:20:00,2.3,-2.4,30.25,NW,312,6.0,18.0,80,0.00,,---,0.01,VWS V14.00,2013-01-20 04:20:00,
2013-01-19 22:25:00,2.3,-2.4,30.26,NW,309,10.0,18.0,80,0.00,,---,0.01,VWS V14.00,2013-01-20 04:25:00,
2013-01-19 22:30:00,2.3,-2.2,30.26,WNW,300,8.0,17.0,81,0.00,,---,0.01,VWS V14.00,2013-01-20 04:30:00,
2013-01-19 22:35:00,2.3,-2.2,30.26,NNW,340,11.0,17.0,81,0.00,,---,0.01,VWS V14.00,2013-01-20 04:35:00,
2013-01-19 22:40:00,2.2,-2.3,30.26,NNW,341,14.0,17.0,81,0.00,,---,0.01,VWS V14.00,2013-01-20 04:40:00,
2013-01-19 22:45:00,2.3,-2.4,30.26,NW,315,5.0,17.0,80,0.00,,---,0.01,VWS V14.00,2013-01-20 04:45:00,
2013-01-19 22:50:00,2.2,-2.8,30.25,NW,304,0.0,17.0,79,0.00,,---,0.01,VWS V14.00,2013-01-20 04:50:00,
2013-01-19 22:55:00,2.2,-2.8,30.26,NNW,330,1.0,17.0,79,0.00,,---,0.01,VWS V14.00,2013-01-20 04:55:00,
2013-01-19 23:00:00,2.1,-2.9,30.25,NW,323,6.0,17.0,79,0.00,,---,0.01,VWS V14.00,2013-01-20 05:00:00,
2013-01-19 23:01:00,2.1,-2.9,30.26,NW,305,6.0,10.0,79,0.00,,---,0.01,VWS V14.00,2013-01-20 05:01:00,
2013-01-19 23:03:00,2.1,-2.9,30.26,NW,306,5.0,10.0,79,0.00,,---,0.01,VWS V14.00,2013-01-20 05:03:00,
2013-01-19 23:08:00,2.1,-3.2,30.26,WNW,298,5.0,10.0,78,0.00,,---,0.01,VWS V14.00,2013-01-20 05:08:00,
2013-01-19 23:13:00,2.1,-3.2,30.26,NW,307,5.0,10.0,78,0.00,,---,0.01,VWS V14.00,2013-01-20 05:13:00,
2013-01-19 23:18:00,2.0,-3.3,30.27,NW,310,2.0,10.0,78,0.00,,---,0.01,VWS V14.00,2013-01-20 05:18:00,
2013-01-19 23:23:00,1.9,-3.4,30.28,NW,310,4.0,10.0,78,0.00,,---,0.01,VWS V14.00,2013-01-20 05:23:00,
2013-01-19 23:28:00,1.9,-3.1,30.29,West,261,5.0,9.0,79,0.00,,---,0.01,VWS V14.00,2013-01-20 05:28:00,
2013-01-19 23:30:00,1.9,-3.1,30.28,NW,307,5.0,10.0,79,0.00,,---,0.01,VWS V14.00,2013-01-20 05:30:00,
2013-01-19 23:33:00,1.9,-3.4,30.30,West,279,1.0,12.0,78,0.00,,---,0.01,VWS V14.00,2013-01-20 05:33:00,
2013-01-19 23:38:00,1.8,-3.5,30.30,WNW,292,1.0,12.0,78,0.00,,---,0.01,VWS V14.00,2013-01-20 05:38:00,
2013-01-19 23:43:00,1.7,-3.8,30.29,NW,312,8.0,14.0,77,0.00,,---,0.01,VWS V14.00,2013-01-20 05:43:00,
2013-01-19 23:48:00,1.7,-4.1,30.30,NW,315,1.0,15.0,76,0.00,,---,0.01,VWS V14.00,2013-01-20 05:48:00,
2013-01-19 23:53:00,1.7,-4.1,30.30,WNW,292,5.0,17.0,76,0.00,,---,0.01,VWS V14.00,2013-01-20 05:53:00,
2013-01-19 23:58:00,1.5,-4.3,30.30,NW,304,1.0,8.0,76,0.00,,---,0.00,VWS V14.00,2013-01-20 05:58:00,